"2022-01-07 00:01:00",2753950,7.126667,191.009,6.670059,1.007629,9.13,0,5.239334,189.3543,8.797183,0.7820696,6.61,0,-999,0,3.607,76.01,3.721,3.704,6.371,0.597,0,4.6,13.57,7.638,101.5229,3.316,3.316,3.316,100,0,0,0,213.9,102.7,102.7
"2022-01-07 00:02:00",2753951,6.788667,192.9889,6.783401,0.8185179,8.37,0,5.320666,195.067,3.433792,0.5860769,6.67,0,-999,0,3.673,75.77,3.735,3.696,6.721,0.746,0,4.6,13.58,7.888,101.5232,3.316,3.316,3.316,100,0,0,0,213.9,102.7,102.7
"2022-01-07 00:03:00",2753952,8.667999,190.2698,7.12049,1.071063,10.31,0,5.590001,190.336,7.738299,1.258126,8.76,0,-999,0,3.7,75.53,3.743,3.708,6.479,0.834,0,4.6,13.57,8.08,101.5145,3.316,3.317,3.316,100,0,0,0,213.9,102.7,102.7
"2022-01-07 00:04:00",2753953,7.548,196.197,6.066635,0.761824,8.65,0,5.929334,196.8669,7.207133,0.6822851,7.17,0,-999,0,3.753,74.81,3.801,3.763,7.787,1.021,0,4.601,13.58,9.7,101.5159,3.317,3.317,3.317,100,0,0,0,213.9,102.7,102.7
"2022-01-07 00:05:00",2753954,7.696,196.332,4.699231,0.6458566,9.07,0,5.750666,198.4011,5.825716,0.8288503,6.98,0,-999,0,3.8,74.61,3.828,3.769,8.08,0.901,0,4.621,13.58,9.58,101.5236,3.316,3.317,3.316,100,0,0,0,213.9,102.7,102.7
"2022-01-07 00:06:00",2753955,7.054,194.9271,8.504267,1.149625,8.81,0,5.934,197.6957,12.56023,0.7393402,7.43,0,-999,0,3.773,75.03,3.817,3.768,7.933,1.161,0,4.622,13.58,9.95,101.5273,3.317,3.317,3.316,100,0,0,0,213.9,102.7,102.7
"2022-01-07 00:07:00",2753956,6.528,197.4634,5.606665,0.6849449,8.34,0,5.644,196.2343,8.616414,0.843412,7.35,0,-999,0,3.793,74.5,3.838,3.81,7.579,0.828,0,4.622,13.58,9.33,101.5304,3.316,3.317,3.316,100,0,0,0,213.9,102.7,102.7
"2022-01-07 00:08:00",2753957,6.77,191.8061,8.397751,0.6757416,7.79,0,5.414667,196.4792,8.716919,0.7234902,6.99,0,-999,0,3.713,75.51,3.776,3.795,7.871,0.915,0,4.622,13.59,9.14,101.5175,3.316,3.316,3.316,100,0,0,0,213.9,102.7,102.7
"2022-01-07 00:09:00",2753958,6.754666,194.6675,4.809466,0.8029019,8.33,0,5.615334,194.3353,7.092143,1.136989,7.56,0,-999,0,3.7,75.19,3.787,3.76,8.12,0.884,0,4.637,13.58,9.64,101.5232,3.316,3.316,3.316,100,0,0,0,213.9,102.7,102.7
"2022-01-07 00:10:00",2753959,9.612667,199.389,6.677154,0.8582109,10.84,0,8.084001,196.667,9.575641,1.285726,10.85,0,-999,0,3.753,74.93,3.805,3.76,9.02,1.29,0,4.643,13.59,11.58,101.5138,3.316,3.316,3.316,100,0,0,0,213.9,102.7,102.7
"2022-01-07 00:11:00",2753960,7.938,196.5321,4.923213,1.110869,9.88,0,6.409333,199.8156,7.656939,1.224154,8.63,0,-999,0,3.753,74.41,3.816,3.775,8.82,0.605,0,4.641,13.57,10.14,101.5159,3.316,3.316,3.316,100,0,0,0,213.9,102.7,102.7
"2022-01-07 00:12:00",2753961,7.877333,198.522,4.888708,0.6974952,8.85,0,6.07,198.2665,5.899868,0.8099875,7.97,0,-999,0,3.7,75.95,3.744,3.767,7.787,0.741,0,4.638,13.58,9.14,101.5218,3.316,3.316,3.316,100,0,0,0,213.9,102.7,102.7
"2022-01-07 00:13:00",2753962,7.767999,204.4649,5.096503,1.102725,10.48,0,6.024667,203.0664,4.904396,1.34552,8.59,0,-999,0,3.653,76.57,3.705,3.755,8.65,1.291,0,4.622,13.58,10.39,101.5226,3.316,3.316,3.316,100,0,0,0,213.9,102.7,102.7
"2022-01-07 00:14:00",2753963,8.759334,204.9328,3.62302,0.6946507,10.22,0,7.567334,199.9951,4.896488,0.6720264,8.23,0,-999,0,3.6,76.36,3.679,3.7,9.77,0.549,0,4.622,13.58,10.39,101.5167,3.316,3.316,3.316,100,0,0,0,213.9,102.7,102.7
"2022-01-07 00:15:00",2753964,8.914666,202.6757,8.945457,1.338466,11.49,0,7.625334,201.2599,5.479139,0.9276772,10.13,0,-999,0,3.54,76.86,3.618,3.676,10.07,1.393,0,4.622,13.58,12.76,101.5176,3.316,3.316,3.316,100,0,0,0,213.9,102.8,102.7
"2022-01-07 00:16:00",2753965,7.516,193.763,11.72832,1.285871,9.87,0,5.192,196.5206,7.18586,1.090017,7.55,0,-999,0,3.593,76.45,3.647,3.616,8.24,1.086,0,4.601,13.58,10.51,101.5064,3.316,3.316,3.315,100,0,0,0,213.9,102.8,102.7
"2022-01-07 00:17:00",2753966,8.374001,197.9987,4.99195,0.6022047,9.24,0,7.111333,195.5922,6.824735,0.8145582,8.63,0,-999,0,3.58,76.52,3.634,3.634,8.1,0.637,0,4.6,13.57,9.08,101.5123,3.316,3.316,3.315,100,0,0,0,213.9,102.8,102.7
"2022-01-07 00:18:00",2753967,8.95,200.909,9.49966,1.327569,11.41,0,7.467999,200.0993,13.43837,1.169782,10.01,0,-999,0,3.5,77.97,3.57,3.618,9.09,0.862,0,4.59,13.58,10.26,101.5081,3.316,3.316,3.315,100,0,0,0,213.9,102.8,102.7
"2022-01-07 00:19:00",2753968,9.999333,203.543,6.923243,0.9406412,11.63,0,8.446667,199.6028,7.103551,1.529508,11.65,0,-999,0,3.52,77.17,3.592,3.566,10.34,1.549,0,4.579,13.58,13.64,101.5021,3.316,3.316,3.315,100,0,0,0,213.9,102.8,102.7
"2022-01-07 00:20:00",2753969,9.865333,197.338,10.05231,1.544443,12.73,0,7.586666,196.6656,13.6189,1.436322,9.91,0,-999,0,3.587,76,3.62,3.606,8.7,1.206,0,4.558,13.58,11.01,101.5054,3.315,3.316,3.315,100,0,0,0,213.9,102.8,102.8
"2022-01-07 00:21:00",2753970,9.503333,207.4916,8.982996,1.094164,11.32,0,7.906666,207.2583,10.96219,1.473444,10.42,0,-999,0,3.5,76.99,3.591,3.603,9.02,1.041,0,4.557,13.58,11.01,101.505,3.314,3.315,3.314,100,0,0,0,213.9,102.8,102.8
"2022-01-07 00:22:00",2753971,9.181334,199.7269,11.04565,1.057701,10.85,0,6.494667,196.3076,9.258374,1.763326,9.78,0,-999,0,3.527,76.63,3.604,3.568,8.4,0.717,0,4.544,13.58,9.58,101.5016,3.315,3.315,3.314,100,0,0,0,213.9,102.8,102.8
"2022-01-07 00:23:00",2753972,9.506666,197.9289,6.554212,1.64071,12.31,0,7.022666,195.6098,8.510771,1.888585,10.62,0,-999,0,3.5,77.59,3.592,3.57,9.44,1.47,0,4.536,13.58,12.7,101.4972,3.314,3.315,3.314,100,0,0,0,213.9,102.8,102.8
"2022-01-07 00:24:00",2753973,10.78067,207.5968,3.994577,1.1852,12.68,0,8.284667,205.2669,4.2171,1.492854,10.27,0,-999,0,3.513,76.91,3.602,3.57,11.19,1.118,0,4.517,13.58,13.7,101.4966,3.314,3.314,3.312,100,0,0.03,0.031,213.9,102.8,102.8
"2022-01-07 00:25:00",2753974,8.996668,198.8011,4.165524,1.283795,11.09,0,7.451334,200.6659,4.712749,0.9215991,8.83,0,-999,0,3.513,76.57,3.591,3.577,9.55,0.378,0,4.514,13.58,10.08,101.4942,3.312,3.314,3.312,100,0,0,0,213.9,102.8,102.8
"2022-01-07 00:26:00",2753975,9.072667,198.6534,8.223637,0.9494593,10.3,0,6.944,200.1381,6.599046,1.066688,9.05,0,-999,0,3.487,78.27,3.524,3.556,8.68,0.905,0,4.502,13.58,10.33,101.5076,3.312,3.312,3.312,100,0,0,0,213.9,102.8,102.8
"2022-01-07 00:27:00",2753976,9.337999,195.4343,8.605985,1.128292,11.55,0,7.01,190.6881,9.899293,1.031594,8.98,0,-999,0,3.5,77.81,3.545,3.533,8.67,1.044,0,4.493,13.58,10.39,101.5041,3.311,3.312,3.311,100,0,0,0,213.9,102.8,102.8
"2022-01-07 00:28:00",2753977,8.886,196.1328,8.202842,0.9944297,11.25,0,6.047333,198.876,7.591756,0.6582549,7.3,0,-999,0,3.473,77.15,3.54,3.545,7.442,1.037,0,4.478,13.58,8.83,101.5011,3.311,3.312,3.311,100,0,0,0,213.9,102.8,102.8
"2022-01-07 00:29:00",2753978,8.092668,198.3332,6.874145,1.188346,9.77,0,5.443333,195.2681,7.202515,1.407635,7.93,0,-999,0,3.413,78.85,3.461,3.513,7.312,1.294,0,4.471,13.58,9.51,101.4983,3.311,3.311,3.311,100,0,0,0,213.9,102.8,102.8
"2022-01-07 00:30:00",2753979,7.802,203.7991,3.850144,0.83386,9.64,0,6.532666,203.5283,7.19561,0.7761999,7.54,0,-999,0,3.4,79.26,3.455,3.48,8.95,1.207,0,4.469,13.58,12.33,101.4984,3.31,3.311,3.31,100,0,0,0,213.9,102.8,102.8
"2022-01-07 00:31:00",2753980,10.148,209.0687,4.738112,0.9389441,11.85,0,8.828,211.2697,6.178517,1.198361,10.99,0,-999,0,3.353,79.15,3.425,3.461,11.27,1.334,0,4.451,13.58,13.39,101.493,3.309,3.31,3.309,100,0,0.02,0.02,213.9,102.8,102.8
"2022-01-07 00:32:00",2753981,8.189333,193.6584,5.528484,1.417432,11.16,0,6.312667,194.2712,5.846074,1.106402,8.47,0,-999,0,3.313,78.67,3.423,3.423,8.05,1.012,0,4.451,13.58,10.26,101.4955,3.308,3.309,3.308,100,0,0,0,213.9,102.8,102.8
"2022-01-07 00:33:00",2753982,10.202,201.2676,4.737759,1.107045,12.18,0,8.022667,202.2698,7.599212,1.158208,10.34,0,-999,0,3.387,78.78,3.448,3.416,9.78,1.037,0,4.435,13.58,11.76,101.4932,3.307,3.308,3.307,100,0,0,0,213.9,102.8,102.8
"2022-01-07 00:34:00",2753983,10.08133,207.8413,9.967251,1.111641,12.45,0,7.86,207.7216,9.976307,1.405589,11.22,0,-999,0,3.387,78.58,3.466,3.425,9.91,0.815,0,4.428,13.58,11.39,101.4814,3.307,3.308,3.307,100,0,0,0,213.9,102.8,102.8
"2022-01-07 00:35:00",2753984,10.19,211.8017,4.306573,0.998913,12.38,0,7.931333,212.5284,5.591267,1.225511,9.78,0,-999,0,3.34,78.41,3.418,3.421,9.53,0.933,0,4.428,13.58,11.08,101.4838,3.307,3.307,3.306,100,0,0,0,213.9,102.8,102.8
"2022-01-07 00:36:00",2753985,9.931334,201.6808,6.860262,1.386366,11.77,0,7.376,201.4695,6.505977,1.018632,9.26,0,-999,0,3.3,79.19,3.401,3.404,8.43,1.076,0,4.412,13.57,10.08,101.4903,3.305,3.306,3.305,100,0,0,0,213.9,102.8,102.8
"2022-01-07 00:37:00",2753986,10.52467,206.6689,6.246042,1.25543,12.56,0,8.84,202.4745,8.158264,1.11739,10.93,0,-999,0,3.3,79.71,3.388,3.383,9.43,0.817,0,4.406,13.58,10.83,101.4842,3.304,3.305,3.304,100,0,0,0,213.9,102.9,102.8
"2022-01-07 00:38:00",2753987,10.76267,204.7979,8.827201,1.283768,13.84,0,8.346666,205.9339,6.966493,1.789222,12.48,0,-999,0,3.3,80,3.352,3.378,10.13,1.223,0,4.388,13.58,12.64,101.4812,3.303,3.304,3.303,100,0,0.04,0.031,214,102.9,102.8
"2022-01-07 00:39:00",2753988,10.64867,202.5341,5.533739,1.175249,12.98,0,7.917333,199.5274,6.352213,1.301304,10.38,0,-999,0,3.293,80,3.337,3.34,9.99,1.015,0,4.385,13.57,11.08,101.4848,3.303,3.303,3.303,100,0,0,0,214,102.9,102.8
"2022-01-07 00:40:00",2753989,10.40933,204.8719,6.12753,1.492669,12.27,0,7.84,204.152,8.385434,1.138338,10.24,0,-999,0,3.213,80.2,3.312,3.322,10.65,0.885,0,4.385,13.57,11.83,101.4791,3.302,3.303,3.301,100,0,0.02,0.021,214,102.9,102.8
"2022-01-07 00:41:00",2753990,9.077333,208.813,6.255644,1.334503,11.34,0,8.165334,210.6696,6.595242,0.9197091,10.03,0,-999,0,3.18,80.8,3.252,3.301,10.75,0.556,0,4.365,13.58,11.51,101.4862,3.301,3.302,3.301,100,0,0,0,214,102.9,102.8
"2022-01-07 00:42:00",2753991,9.132001,206.8849,10.16594,1.861642,12.76,0,7.369333,210.5791,11.195,1.250592,10.42,0,-999,0,3.1,82.4,3.183,3.245,9.72,0.622,0,4.365,13.57,11.01,101.4792,3.3,3.301,3.3,100,0,0,0,214,102.9,102.9
"2022-01-07 00:43:00",2753992,9.658001,200.4681,6.267846,1.223259,11.44,0,6.3,199.8656,5.972404,1.057954,8.28,0,-999,0,3.1,82.2,3.173,3.222,8.77,1.551,0,4.353,13.57,11.76,101.4756,3.3,3.3,3.299,100,0,0.02,0.021,214,102.9,102.9
"2022-01-07 00:44:00",2753993,10.636,201.1945,6.557392,0.96493,12.03,0,8.149333,201.5348,7.596497,1.076027,10.06,0,-999,0,3.1,81.6,3.198,3.19,10.1,0.76,0,4.342,13.58,11.58,101.4717,3.299,3.3,3.299,100,0,0,0,214,102.9,102.9
"2022-01-07 00:45:00",2753994,7.496665,201.8037,6.953855,1.101088,9.59,0,5.454667,204.2715,5.876573,0.6898102,6.86,0,-999,0,3.1,81.6,3.205,3.18,8.77,0.811,0,4.331,13.57,9.7,101.4799,3.298,3.299,3.298,100,0,0,0,214,102.9,102.9
"2022-01-07 00:46:00",2753995,7.956,202.61,10.61495,1.403086,10.51,0,6.29,204.6908,9.40684,1.364229,9.34,0,-999,0,3.047,82.8,3.146,3.195,8.27,1.174,0,4.322,13.57,10.45,101.4752,3.298,3.298,3.298,100,0,0,0,214,102.9,102.9
"2022-01-07 00:47:00",2753996,8.351333,200.0015,6.052942,0.7134225,9.95,0,6.644,197.9394,6.693299,0.8513111,8.33,0,-999,0,3,83,3.11,3.182,7.95,0.936,0,4.317,13.58,9.64,101.4702,3.297,3.298,3.297,100,0,0.02,0.023,214,102.9,102.9
"2022-01-07 00:48:00",2753997,8.963333,197.0663,3.990076,1.702757,11.46,0,7.388666,192.739,6.00224,0.9230303,8.92,0,-999,0,3,83.9,3.086,3.14,7.4,0.926,0,4.299,13.58,8.95,101.4582,3.296,3.297,3.296,100,0,0,0,214,103,102.9
"2022-01-07 00:49:00",2753998,7.286666,199.5221,5.657804,0.9621619,8.73,0,5.305334,195.6079,5.85684,0.9735835,7.44,0,-999,0,2.98,83.7,3.087,3.127,8.17,0.941,0,4.299,13.58,9.2,101.4727,3.296,3.296,3.294,100,0,0.03,0.031,214.1,103,102.9
"2022-01-07 00:50:00",2753999,8.724667,200.4816,6.152779,1.674268,11.39,0,6.050666,200.2635,5.703001,1.661969,9.57,0,-999,0,2.9,84.1,3.031,3.109,7.333,1.026,0,4.295,13.57,10.08,101.4684,3.294,3.296,3.294,100,0,0,0,214.1,103,102.9
"2022-01-07 00:51:00",2754000,9.318666,203.4132,6.898306,1.035219,11.31,0,7.007999,205.3323,5.825022,0.8362153,8.46,0,-999,0,2.9,83.8,3.039,3.08,8.72,0.908,0,4.279,13.58,10.33,101.4616,3.294,3.294,3.294,100,0,0.02,0.022,214.1,103,102.9
"2022-01-07 00:52:00",2754001,9.026,198.8667,4.160641,1.203887,11.38,0,6.916667,198.4664,6.695825,1.420214,9.04,0,-999,0,2.9,84.2,3.004,3.049,7.887,0.848,0,4.271,13.58,9.33,101.4629,3.293,3.294,3.293,100,0,0,0,214.1,103,102.9
"2022-01-07 00:53:00",2754002,11.102,198.6669,3.379346,1.086138,13.07,0,8.379334,198.6029,6.330383,1.407468,10.9,0,-999,0,2.9,84.1,2.987,3.029,11.11,0.793,0,4.256,13.58,12.76,101.4619,3.292,3.294,3.292,100,0,0.03,0.022,214.1,103.1,103
"2022-01-07 00:54:00",2754003,10.91667,203.2061,5.609493,0.9815618,11.94,0,8.738667,202.2659,4.294467,1.351112,11.68,0,-999,0,2.807,84.1,2.948,2.997,10.35,0.574,0,4.255,13.58,11.26,101.4528,3.292,3.292,3.291,100,0,0.02,0.025,214.1,103.1,103
"2022-01-07 00:55:00",2754004,9.935333,199.6757,5.443846,0.8143452,11.94,0,7.101333,197.4779,6.505522,1.11035,9.08,0,-999,0,2.8,84.2,2.932,2.968,8.23,1.017,0,4.237,13.58,9.89,101.4531,3.291,3.292,3.291,100,0,0,0,214.1,103.1,103
"2022-01-07 00:56:00",2754005,9.672,195.5123,7.421811,1.235067,11.37,0,7.726001,194.8172,9.575515,1.39347,9.72,0,-999,0,2.8,84.6,2.945,2.964,9.06,0.958,0,4.224,13.58,10.39,101.4487,3.29,3.291,3.29,100,0,0.02,0.022,214.1,103.1,103
"2022-01-07 00:57:00",2754006,10.71867,198.6539,7.234795,0.7462695,11.91,0,8.041999,198.1033,10.36148,1.572803,11.01,0,-999,0,2.8,84.7,2.945,2.968,8.55,1.168,0,4.213,13.58,10.26,101.4534,3.29,3.29,3.29,100,0,0.02,0.022,214.2,103.1,103
"2022-01-07 00:58:00",2754007,9.244,202.4062,7.212022,1.214006,11.39,0,7.573333,197.5445,6.595915,1.112958,9.85,0,-999,0,2.72,84.6,2.907,2.96,8.94,1.406,0,4.205,13.58,11.26,101.451,3.289,3.29,3.289,100,0,0.03,0.025,214.2,103.1,103.1
"2022-01-07 00:59:00",2754008,9.257335,204.5629,7.65449,1.242264,11.84,0,6.774,201.5228,9.93597,1.108487,9.98,0,-999,0,2.747,84.5,2.888,2.915,8.34,0.852,0,4.19,13.57,9.7,101.4421,3.288,3.289,3.288,100,0,0,0,214.2,103.1,103.1
"2022-01-07 01:00:00",2754009,9.369334,197.6108,8.682704,1.175259,12.31,0,7.578666,197.6775,9.5143,0.7752323,9,0,-999,0,2.707,85,2.877,2.917,9.12,1.404,0,4.17,13.58,11.58,101.4445,3.288,3.288,3.287,100,0,0,0,214.2,103.1,103.1
"2022-01-07 01:01:00",2754010,8.996667,193.4665,5.474122,0.9495941,10.92,0,6.885333,190.4006,6.277997,1.429862,9.7,0,-999,0,2.7,85.6,2.867,2.915,8.75,0.895,0,4.161,13.58,10.08,101.4433,3.286,3.286,3.286,100,0,0.03,0.033,214.2,103.1,103.1
"2022-01-07 01:02:00",2754011,9.33,197.4062,5.984712,1.399891,11.67,0,6.437333,196.2083,6.762583,1.650901,9.33,0,-999,0,2.7,85.9,2.839,2.906,9.21,0.912,0,4.15,13.57,11.08,101.4483,3.286,3.286,3.286,100,0,0.02,0.02,214.2,103.2,103.1
"2022-01-07 01:03:00",2754012,9.280666,196.5343,3.71911,0.4648222,10,0,7.086667,197.1348,4.513752,0.7273299,8.74,0,-999,0,2.7,85.7,2.817,2.862,9.92,0.999,0,4.135,13.58,12.08,101.4413,3.285,3.286,3.284,100,0,0,0,214.2,103.2,103.1
"2022-01-07 01:04:00",2754013,7.823334,200.8679,3.383059,0.6100785,8.77,0,6.086,199.8668,3.343283,0.6128273,6.83,0,-999,0,2.687,86.3,2.793,2.856,7.7,0.953,0,4.127,13.58,9.7,101.4502,3.284,3.284,3.284,100,0,0,0,214.2,103.2,103.1
"2022-01-07 01:05:00",2754014,7.249333,195.3334,5.040924,0.4804784,7.93,0,5.001333,197.4714,5.84653,0.7390162,5.9,0,-999,0,2.6,87.3,2.748,2.845,6.679,0.821,0,4.126,13.57,8.51,101.4524,3.284,3.284,3.283,100,0,0.02,0.022,214.3,103.2,103.1
"2022-01-07 01:06:00",2754015,8.030667,191.5949,7.008069,1.335098,11.1,0,5.86,193.5331,5.461494,0.9385023,7.33,0,-999,0,2.6,87,2.734,2.833,7.379,0.751,0,4.111,13.58,8.83,101.4331,3.282,3.284,3.282,100,0,0.03,0.027,214.3,103.2,103.2
"2022-01-07 01:07:00",2754016,7.379334,200.4682,5.109155,0.6949672,8.46,0,5.515333,199.9925,9.062299,1.105675,7.03,0,-999,0,2.6,86.2,2.737,2.821,7.425,1.4,0,4.098,13.58,9.45,101.4447,3.282,3.282,3.282,100,0,0,0,214.3,103.2,103.2
"2022-01-07 01:08:00",2754017,8.143332,193.0204,6.979022,1.095881,9.81,0,5.919334,194.3972,7.264985,0.8627281,7.82,0,-999,0,2.6,87,2.734,2.821,8.34,0.956,0,4.084,13.57,9.58,101.4479,3.28,3.282,3.28,100,0,0.02,0.021,214.3,103.2,103.2
"2022-01-07 01:09:00",2754018,8.537333,197.2653,4.890841,1.154622,10.31,0,5.744,195.9326,7.168548,1.167617,8.41,0,-999,0,2.6,86.8,2.738,2.808,8.65,0.76,0,4.082,13.57,10.58,101.4479,3.28,3.28,3.279,100,0,0,0,214.3,103.2,103.2
"2022-01-07 01:10:00",2754019,9.781332,200.4005,4.269576,1.025748,11.26,0,7.817334,202.6637,6.177941,0.8500076,9.07,0,-999,0,2.653,86.3,2.764,2.807,10.2,0.91,0,4.042,13.57,11.33,101.4389,3.278,3.279,3.278,100,0,0.02,0.022,214.3,103.2,103.2
"2022-01-07 01:11:00",2754020,9.598001,198.9304,5.408125,0.5581303,10.55,0,7.288667,195.9229,6.946011,1.078251,9.55,0,-999,0,2.647,86.4,2.761,2.814,9.83,0.828,0,4.033,13.58,11.33,101.4359,3.278,3.278,3.276,100,0,0,0,214.3,103.2,103.2
"2022-01-07 01:12:00",2754021,9.561332,201.8047,4.952915,1.13601,11.27,0,7.718668,201.9337,5.321452,1.305424,10.29,0,-999,0,2.673,86.7,2.767,2.804,9.67,1.124,0,4.021,13.57,11.45,101.4392,3.275,3.278,3.275,100,0,0,0,214.3,103.2,103.2
"2022-01-07 01:13:00",2754022,7.700666,197.719,7.881317,0.9435781,9.25,0,6.674666,200.7957,5.15172,0.9983777,8.36,0,-999,0,2.613,87.2,2.743,2.799,8.53,0.777,0,4.021,13.58,9.7,101.4337,3.274,3.275,3.274,100,0,0.04,0.031,214.4,103.2,103.2
"2022-01-07 01:14:00",2754023,6.544,197.5964,6.233925,0.6379635,7.65,0,5.673333,196.3977,5.557845,0.8665307,7.32,0,-999,0,2.6,87.8,2.732,2.794,8.99,0.763,0,4.011,13.58,10.33,101.4404,3.273,3.275,3.273,100,0,0,0,214.4,103.2,103.2
"2022-01-07 01:15:00",2754024,6.937333,192.7881,8.019522,0.7884117,8.56,0,4.692667,190.4788,7.203642,0.8704594,6.53,0,-999,0,2.6,87.8,2.719,2.784,8.98,0.461,0,3.999,13.57,9.95,101.4347,3.271,3.273,3.271,100,0,0,0,214.4,103.2,103.2
"2022-01-07 01:16:00",2754025,8.057334,195.6663,4.525105,0.7806874,9.47,0,6.078667,196.4007,6.718566,0.9603809,7.82,0,-999,0,2.627,87.3,2.73,2.764,7.971,0.927,0,3.992,13.57,9.39,101.4244,3.271,3.273,3.271,100,0,0,0,214.4,103.2,103.2
"2022-01-07 01:17:00",2754026,6.746,199.0609,4.993349,0.5837556,7.99,0,5.035333,197.4707,6.363566,0.5992203,6.05,0,-999,0,2.613,87.1,2.744,2.775,7.758,0.864,0,3.978,13.57,9.08,101.4186,3.269,3.271,3.269,100,0,0,0,214.4,103.2,103.2
"2022-01-07 01:18:00",2754027,6.384666,192.9227,6.506964,0.8542277,7.71,0,5.197333,190.2604,6.244256,0.8161247,6.26,0,-999,0,2.6,87.9,2.716,2.773,7.75,1.088,0,3.978,13.57,11.01,101.4372,3.269,3.269,3.269,100,0,0,0,214.4,103.2,103.2
"2022-01-07 01:19:00",2754028,9.357332,196.3377,5.847423,0.8913396,10.57,0,6.996,191.2794,8.099916,1.420168,9.53,0,-999,0,2.6,87.7,2.693,2.754,8.56,1.01,0,3.96,13.57,10.01,101.4345,3.267,3.269,3.267,100,0,0,0,214.4,103.3,103.2
"2022-01-07 01:20:00",2754029,8.385334,192.6712,6.080945,0.8735434,10.23,0,6.227334,192.2095,5.030295,1.244382,8.27,0,-999,0,2.6,87.2,2.723,2.754,8.6,0.412,0,3.956,13.57,9.2,101.4246,3.267,3.267,3.267,100,0,0,0,214.4,103.2,103.2
"2022-01-07 01:21:00",2754030,8.332666,193.0698,4.278769,0.9183496,10.49,0,7.471333,193.4644,5.511548,1.20699,8.7,0,-999,0,2.6,87.7,2.712,2.752,8.82,0.59,0,3.946,13.57,10.08,101.4315,3.266,3.267,3.266,100,0,0,0,214.4,103.2,103.2
"2022-01-07 01:22:00",2754031,8.817333,191.9386,4.504293,0.6911002,9.97,0,7.314667,193.4033,4.742406,0.8882782,8.72,0,-999,0,2.613,87.2,2.73,2.749,7.629,0.895,0,3.935,13.57,9.7,101.4238,3.265,3.266,3.265,100,0,0,0,214.4,103.2,103.2
"2022-01-07 01:23:00",2754032,8.7,193.6662,4.283336,1.056523,10.43,0,7.092667,190.3312,4.920415,1.006442,9.23,0,-999,0,2.687,87,2.746,2.758,8.47,0.653,0,3.935,13.57,10.08,101.4284,3.264,3.265,3.264,100,0,0,0,214.4,103.3,103.2
"2022-01-07 01:24:00",2754033,6.852,193.9324,3.315506,0.6447552,7.75,0,5.926667,194.3339,5.699249,0.724897,7.36,0,-999,0,2.633,87.7,2.744,2.775,7.671,0.51,0,3.932,13.57,8.51,101.4287,3.263,3.264,3.263,100,0,0,0,214.4,103.2,103.2
"2022-01-07 01:25:00",2754034,7.906667,190.0651,3.254217,1.341778,9.67,0,6.593334,187.003,4.758716,1.343685,8.96,0,-999,0,2.6,88.7,2.715,2.764,8.06,1.056,0,3.916,13.57,9.58,101.4208,3.263,3.263,3.262,100,0,0,0,214.4,103.3,103.2
"2022-01-07 01:26:00",2754035,8.518666,187.0012,3.863734,0.5228367,9.79,0,6.402666,184.3301,5.916076,0.971085,7.75,0,-999,0,2.613,87.5,2.715,2.75,7.717,0.759,0,3.913,13.57,8.64,101.4054,3.261,3.262,3.261,100,0,0,0,214.4,103.3,103.2
"2022-01-07 01:27:00",2754036,7.577333,191.6016,6.455019,0.7592581,8.83,0,6.014667,191.0655,5.648757,0.5204085,7.03,0,-999,0,2.627,86.9,2.734,2.752,8.85,0.81,0,3.901,13.57,10.45,101.3911,3.261,3.261,3.259,100,0,0,0,214.4,103.3,103.3
"2022-01-07 01:28:00",2754037,6.444666,190.3266,4.835832,0.6380478,7.27,0,5.755334,190.1234,7.970987,0.7034474,6.88,0,-999,0,2.6,88,2.725,2.752,7.983,0.775,0,3.892,13.57,8.95,101.4074,3.259,3.261,3.259,100,0,0,0,214.4,103.3,103.3
"2022-01-07 01:29:00",2754038,7.841333,188.0653,4.722315,0.6617034,8.86,0,5.417334,187.7993,6.426957,0.9068294,7.4,0,-999,0,2.6,88.6,2.706,2.745,6.45,0.69,0,3.892,13.57,8.14,101.409,3.259,3.259,3.259,100,0,0,0,214.4,103.3,103.3
"2022-01-07 01:30:00",2754039,7.386666,187.3324,7.178898,1.005715,9.09,0,5.526,186.3309,6.02676,0.943128,6.81,0,-999,0,2.6,88.4,2.689,2.748,8.42,0.874,0,3.883,13.58,10.14,101.4115,3.257,3.259,3.257,100,0,0.03,0.03,214.4,103.3,103.3
"2022-01-07 01:31:00",2754040,6.582,185.3328,4.85246,0.9321387,8.07,0,5.160001,186.0655,5.283127,0.8212917,7.05,0,-999,0,2.6,87.4,2.684,2.711,7.529,0.896,0,3.87,13.57,9.08,101.4041,3.256,3.256,3.256,100,0,0,0,214.4,103.3,103.3
"2022-01-07 01:32:00",2754041,6.37,182.9304,4.326374,0.8038824,8.6,0,4.898001,182.0664,4.931099,0.9306356,6.48,0,-999,0,2.6,87.6,2.705,2.731,7.587,0.751,0,3.86,13.56,8.76,101.4101,3.256,3.256,3.256,100,0,0,0,214.4,103.3,103.3
"2022-01-07 01:33:00",2754042,7.87,187.4609,6.383011,0.6068497,8.74,0,5.621333,187.6579,5.914642,0.9231675,7.85,0,-999,0,2.6,88.1,2.674,2.723,7.925,0.973,0,3.85,13.57,10.08,101.3948,3.254,3.256,3.254,100,0,0,0,214.4,103.3,103.3
"2022-01-07 01:34:00",2754043,8.324667,188.5955,5.82619,1.001098,9.87,0,5.676667,184.3293,6.003932,0.9264389,7.37,0,-999,0,2.6,87.9,2.676,2.689,8.82,0.742,0,3.85,13.57,9.89,101.3953,3.254,3.254,3.254,100,0,0,0,214.4,103.3,103.3
"2022-01-07 01:35:00",2754044,7.922667,186.399,4.331048,0.6207142,9.45,0,5.594666,183.9319,5.036686,0.8064891,6.97,0,-999,0,2.62,87.4,2.72,2.699,7.254,0.429,0,3.848,13.56,8.2,101.3829,3.253,3.254,3.252,100,0,0,0,214.4,103.3,103.3
"2022-01-07 01:36:00",2754045,7.188001,182.3329,3.753074,0.5473596,8,0,5.092667,181.6025,5.107112,0.6213368,6.18,0,-999,0,2.66,87.3,2.733,2.739,6.908,0.592,0,3.827,13.57,7.825,101.3908,3.252,3.252,3.252,100,0,0,0,214.4,103.3,103.3
"2022-01-07 01:37:00",2754046,6.673999,184.1977,4.884964,0.6265014,7.75,0,4.312666,186.5962,6.686384,0.6908205,5.35,0,-999,0,2.6,87.6,2.734,2.746,6.95,0.753,0,3.827,13.58,8.33,101.3883,3.252,3.252,3.252,100,0,0,0,214.4,103.3,103.3
"2022-01-07 01:38:00",2754047,6.792,186.5306,4.330686,1.122261,8.27,0,4.529334,185.44,9.490677,0.9804997,6.55,0,-999,0,2.613,87.8,2.726,2.75,6.983,0.601,0,3.827,13.56,7.888,101.3853,3.25,3.251,3.25,100,0,0.02,0.02,214.4,103.3,103.3
"2022-01-07 01:39:00",2754048,7.317334,188.0024,6.406502,0.9083279,8.87,0,5.78,188.3947,8.721557,1.098314,7.59,0,-999,0,2.66,87.6,2.733,2.749,7.542,0.711,0,3.808,13.57,8.51,101.3757,3.249,3.25,3.249,100,0,0,0,214.4,103.3,103.3
"2022-01-07 01:40:00",2754049,7.477999,183.5972,5.545671,0.812307,8.9,0,5.589999,178.2143,5.272177,0.5403948,6.54,0,-999,0,2.7,87.8,2.739,2.749,7.175,0.361,0,3.807,13.56,8.14,101.3805,3.248,3.25,3.248,100,0,0,0,214.4,103.3,103.3
"2022-01-07 01:41:00",2754050,7.042666,186.0641,5.37151,0.8673674,8.75,0,5.815333,188.6746,6.796595,0.8489826,7.83,0,-999,0,2.7,87.8,2.761,2.757,7.325,0.768,0,3.807,13.58,9.01,101.3832,3.248,3.248,3.248,100,0,0,0,214.4,103.3,103.3
"2022-01-07 01:42:00",2754051,6.575333,184.2,4.635388,1.03262,8.62,0,4.930666,180.7969,5.63251,0.8123338,6.57,0,-999,0,2.687,88.2,2.74,2.759,7.446,0.321,0,3.807,13.57,8.26,101.3825,3.248,3.248,3.248,100,0,0,0,214.4,103.3,103.3
"2022-01-07 01:43:00",2754052,7.109334,180.5393,5.00201,0.4639033,7.94,0,5.138667,179.9362,4.972164,0.7414747,6.67,0,-999,0,2.687,87.6,2.743,2.749,6.712,0.528,0,3.801,13.58,7.45,101.3769,3.248,3.248,3.248,100,0,0,0,214.4,103.3,103.3